Hourly Data Report for June 26, 2021

DRYDEN REGIONAL
ONTARIO
Current Station Operator: NAVCAN

49°49'39.000" N
92°44'39.000" W
412.70 m
6032125
71527
YHD

Download Data

Hourly Data (June 2021)
Hourly Data Report for June 26, 2021
TIME
LST
Temp Definition
°C
Dew Point Definition
°C
Rel Hum Definition
%
Precip. Amount Definition
mm

Wind Dir Definition
10's deg

Wind Spd Definition
km/h
Visibility Definition
km
Stn Press Definition
kPa
Hmdx Definition


Wind Chill Definition


Weather Definition


00:00 17.2 12.4 73 0.0 22 11 16.1 96.33     LegendNANA
01:00 17.4 13.4 77 0.0 25 32 16.1 96.35     LegendNANA
02:00 15.4 14.6 95 0.5 24 11 16.1 96.33     Rain
03:00 15.4 14.6 95 0.0 LegendMM 4 16.1 96.26     LegendNANA
04:00 14.9 14.5 97 0.0 28 9 14.5 96.29     LegendNANA
05:00 15.2 14.5 96 0.0 28 5 16.1 96.29     LegendNANA
06:00 15.3 14.7 96 0.0 25 4 16.1 96.29     LegendNANA
07:00 15.7 14.8 95 0.0 23 5 16.1 96.31     LegendNANA
08:00 16.9 15.2 89 0.2 25 5 16.1 96.32     LegendNANA
09:00 18.1 14.6 80 0.0 LegendMM 4 16.1 96.31     LegendNANA
10:00 19.7 14.8 73 0.0 14 8 16.1 96.29     LegendNANA
11:00 21.5 14.9 66 0.0 11 9 16.1 96.28 25   LegendNANA
12:00 21.4 14.6 65 0.0 18 5 16.1 96.26 25   LegendNANA
13:00 23.6 14.5 56 0.0 LegendMM 8 16.1 96.22 27   LegendNANA
14:00 23.5 14.6 57 0.0 LegendMM 13 16.1 96.20 27   LegendNANA
15:00 24.4 14.3 53 0.0   0 16.1 96.19 28   LegendNANA
16:00 24.7 13.2 48 0.0 27 9 16.1 96.16 28   LegendNANA
17:00 15.6 14.5 93 16.0 4 11 11.3 96.28     Thunderstorms,Moderate Rain
18:00 18.2 15.4 84 1.0 8 13 16.1 96.22     LegendNANA
19:00 18.9 15.8 82 0.0   0 16.1 96.24     LegendNANA
20:00 18.4 16.1 86 0.0 23 5 16.1 96.23     LegendNANA
21:00 17.2 14.9 86 0.0 30 5 16.1 96.25     LegendNANA
22:00 16.6 15.3 92 0.0 27 8 16.1 96.23     LegendNANA
23:00 15.5 14.3 93 0.0 28 11 16.1 96.24     LegendNANA

Notes on Data Quality.

Legend

  • E = Estimated
  • M = Missing
  • NA = Not Available*
  • [empty] = Indicates an unobserved value
Date modified: